Flag for U.S.A. Weather past 2 weeks in Clovis, New Mexico, U.S.A.

Now
34 °F

Low clouds.


Feels Like: 27 °F
Forecast: 34 / 40 °F
Wind: 8 mph from Southeast

Location: Cannon Air Force Base / Clovis

Current Time: Jan 31, 2015 at 3:30:26 AM

Latest Report: Jan 31, 2015 at 2:58 AM


Visibility: 10 mi

Pressure: 30.06 "Hg

Humidity: 99%

Dew point: 33 °F

Location of ClovisLocation

Historic Weather in Clovis — Graph

°F

Clovis temperature yesterday

Maximum temperature yesterday: 38 °F (at 10:58 AM)
Minimum temperature yesterday: 34 °F (at 11:58 PM)
Average temperature yesterday: 36 °F

Past Weeks' High & Low Weather Summary

 TemperatureHumidityPressure
High69 °F (Jan 28, 2:58 PM)100% (Jan 21, 3:58 PM)30.49 "Hg (Jan 21, 3:58 PM)
Low14 °F (Jan 23, 7:58 AM)14% (Jan 19, 1:58 PM)29.85 "Hg (Jan 20, 12:58 AM)
Average41 °F62%30.18 "Hg
* Reported Jan 16 1:58 AM — Jan 31 1:58 AM, Clovis, Weather by CustomWeather, © 2014

Note: Actual official high and low records may vary slightly from our data, if they occured in-between our weather recording intervals... More about our weather records

Advertising

Clovis weather history for previous 24 hours

 ConditionsComfort  
Time TempWeatherWind HumidityBarometerVisibility
1:58 AM
Jan 31
34 °FPassing clouds.10 mph98%30.08 "Hg9 mi
12:58 AM34 °FLight rain. Low clouds.10 mph98%30.13 "Hg7 mi
11:58 PM
Jan 30
34 °FLight rain. Low clouds.7 mph99%30.15 "Hg9 mi
10:58 PM34 °FLight rain. Low clouds.7 mph99%30.17 "Hg8 mi
9:58 PM34 °FLight rain. Overcast.10 mph94%30.18 "Hg10 mi
8:58 PM36 °FOvercast.8 mph84%30.18 "Hg10 mi
7:58 PM35 °FLight rain. Overcast.3 mph90%30.18 "Hg10 mi
6:58 PM36 °FOvercast.9 mph82%30.20 "Hg10 mi
5:58 PM36 °FOvercast.3 mph84%30.21 "Hg10 mi
4:58 PM35 °FLight rain. Overcast.6 mph84%30.21 "Hg10 mi
3:58 PM35 °FMore clouds than sun.10 mph83%30.22 "Hg10 mi
2:58 PM36 °FOvercast.7 mph82%30.24 "Hg10 mi
1:58 PM36 °FOvercast.8 mph80%30.27 "Hg10 mi
12:58 PM37 °FLight rain. More clouds than sun.8 mph83%30.29 "Hg7 mi
11:58 AM36 °FSleet. Cloudy.10 mph81%30.32 "Hg7 mi
10:58 AM38 °FSleet. Overcast.10 mph64%30.37 "Hg5 mi
9:58 AM38 °FLight snow. Overcast.10 mph61%30.41 "Hg10 mi
8:58 AM38 °FOvercast.10 mph66%30.41 "Hg10 mi
7:58 AM37 °FMostly cloudy.7 mph70%30.39 "Hg10 mi
6:58 AM37 °FOvercast.5 mph71%30.40 "Hg10 mi
5:58 AM37 °FPartly cloudy.2 mph73%30.41 "Hg10 mi
4:58 AM37 °FOvercast.2 mph76%30.40 "Hg10 mi
3:58 AM38 °FOvercast.1 mph71%30.39 "Hg10 mi
Weather by CustomWeather, © 2014

See weather overviewHow to use our weather pages